Torna al catalogo

CZ-6A DEB

AttivoPO
NORAD 61387·DEBRIS·🇨🇳 China

Lanciato Aug 6, 2024 da Taiyuan Satellite Launch Center

Loading…

Prossimi Passaggi (prossime 24 ore)

TLE

AggiornatoSource: Space-Track

Epoca: Sep 14, 2026, 10:43 UTC

1 61387U 24140XC  26257.44653657  .00001582  00000-0  65622-3 0  9998
2 61387  89.0032 264.6453 0038375 222.2565 137.5670 14.25698398105199

Traccia CZ-6A DEB in tempo reale con AllMySat

Download on the App Store